Hourly Weather Nazaret

Today, 30 September, Wednesday

Time Temperature Precipitation Wind Pressure Humidity
00:00 +24°C° 0 mm 1 mps 726 mmHg 85%
01:00 +24°C° 0 mm 1 mps 726 mmHg 85%
02:00 +23°C° 0 mm 1 mps 726 mmHg 84%
03:00 +23°C° 0 mm 1 mps 726 mmHg 85%
04:00 +23°C° 0 mm 1 mps 726 mmHg 86%
05:00 +22°C° 0 mm 1 mps 726 mmHg 87%
06:00 +24°C° 0 mm 1 mps 726 mmHg 79%
07:00 +26°C° 0 mm 1 mps 726 mmHg 71%
08:00 +28°C° 0 mm 1 mps 726 mmHg 63%
09:00 +30°C° 0 mm 2 mps 726 mmHg 54%
10:00 +34°C° 0 mm 3 mps 726 mmHg 45%
11:00 +36°C° 0 mm 3 mps 727 mmHg 35%
12:00 +36°C° 0 mm 4 mps 726 mmHg 36%
13:00 +35°C° 0 mm 5 mps 726 mmHg 37%
14:00 +35°C° 0 mm 6 mps 725 mmHg 37%
15:00 +33°C° 0 mm 5 mps 725 mmHg 45%
16:00 +32°C° 0 mm 4 mps 725 mmHg 53%
17:00 +29°C° 0 mm 3 mps 725 mmHg 61%
18:00 +27°C° 0 mm 2 mps 725 mmHg 69%
19:00 +25°C° 0 mm 2 mps 725 mmHg 77%
20:00 +24°C° 0 mm 1 mps 725 mmHg 85%
21:00 +24°C° 0 mm 1 mps 725 mmHg 85%
22:00 +23°C° 0 mm 1 mps 725 mmHg 85%
23:00 +21°C° 0 mm 0 mps 725 mmHg 85%

Tomorrow, 1 October, Thursday

Time Temperature Precipitation Wind Pressure Humidity
00:00 +21°C° 0 mm 0 mps 725 mmHg 85%
01:00 +20°C° 0 mm 0 mps 725 mmHg 85%
02:00 +22°C° 0 mm 1 mps 724 mmHg 85%
03:00 +22°C° 0 mm 1 mps 725 mmHg 86%
04:00 +22°C° 0 mm 1 mps 725 mmHg 87%
05:00 +22°C° 0 mm 1 mps 725 mmHg 88%
06:00 +23°C° 0 mm 1 mps 725 mmHg 80%
07:00 +25°C° 0 mm 1 mps 726 mmHg 73%
08:00 +27°C° 0 mm 1 mps 726 mmHg 65%
09:00 +29°C° 0 mm 2 mps 726 mmHg 56%
10:00 +31°C° 0 mm 3 mps 726 mmHg 48%
11:00 +34°C° 0 mm 4 mps 726 mmHg 39%
12:00 +33°C° 0 mm 5 mps 726 mmHg 39%
13:00 +33°C° 0 mm 6 mps 726 mmHg 39%
14:00 +33°C° 0 mm 6 mps 726 mmHg 39%
15:00 +32°C° 0 mm 6 mps 726 mmHg 46%
16:00 +29°C° 0 mm 5 mps 725 mmHg 54%
17:00 +27°C° 0 mm 4 mps 725 mmHg 61%
18:00 +26°C° 0 mm 3 mps 726 mmHg 67%
19:00 +24°C° 0 mm 2 mps 726 mmHg 73%
20:00 +23°C° 0 mm 1 mps 726 mmHg 79%
21:00 +22°C° 0 mm 1 mps 726 mmHg 80%
22:00 +22°C° 0 mm 1 mps 726 mmHg 81%
23:00 +22°C° 0 mm 1 mps 726 mmHg 81%

Day after tomorrow, 2 October, Friday

Time Temperature Precipitation Wind Pressure Humidity
00:00 +21°C° 0 mm 1 mps 726 mmHg 82%
01:00 +19°C° 0 mm 0 mps 726 mmHg 82%
02:00 +18°C° 0 mm 0 mps 726 mmHg 82%
03:00 +18°C° 0 mm 0 mps 726 mmHg 82%
04:00 +18°C° 0 mm 0 mps 726 mmHg 83%
05:00 +18°C° 0 mm 0 mps 727 mmHg 83%
06:00 +20°C° 0 mm 0 mps 727 mmHg 74%
07:00 +24°C° 0 mm 1 mps 728 mmHg 65%
08:00 +26°C° 0 mm 1 mps 728 mmHg 56%
09:00 +27°C° 0 mm 1 mps 728 mmHg 50%
10:00 +29°C° 0 mm 2 mps 728 mmHg 43%
11:00 +31°C° 0 mm 3 mps 729 mmHg 37%
12:00 +32°C° 0 mm 4 mps 728 mmHg 37%
13:00 +32°C° 0 mm 5 mps 728 mmHg 38%
14:00 +32°C° 0 mm 5 mps 728 mmHg 38%
15:00 +29°C° 0 mm 5 mps 728 mmHg 43%
16:00 +28°C° 0 mm 4 mps 728 mmHg 49%
17:00 +26°C° 0 mm 4 mps 728 mmHg 54%
18:00 +25°C° 0 mm 3 mps 728 mmHg 61%
19:00 +22°C° 0 mm 3 mps 728 mmHg 68%
20:00 +20°C° 0 mm 2 mps 729 mmHg 75%
21:00 +21°C° 0 mm 1 mps 728 mmHg 77%
22:00 +21°C° 0 mm 1 mps 728 mmHg 78%
23:00 +20°C° 0 mm 1 mps 728 mmHg 80%

3 October, Saturday

Time Temperature Precipitation Wind Pressure Humidity
00:00 +20°C° 0 mm 1 mps 728 mmHg 81%
01:00 +20°C° 0 mm 1 mps 728 mmHg 82%
02:00 +17°C° 0 mm 0 mps 728 mmHg 83%
03:00 +17°C° 0 mm 0 mps 728 mmHg 83%
04:00 +17°C° 0 mm 0 mps 728 mmHg 84%
05:00 +17°C° 0 mm 0 mps 728 mmHg 84%
06:00 +19°C° 0 mm 0 mps 729 mmHg 76%
07:00 +21°C° 0 mm 0 mps 729 mmHg 69%
08:00 +23°C° 0 mm 0 mps 729 mmHg 61%
09:00 +26°C° 0 mm 1 mps 729 mmHg 54%
10:00 +28°C° 0 mm 2 mps 729 mmHg 47%
11:00 +30°C° 0 mm 3 mps 729 mmHg 40%
12:00 +30°C° 0 mm 4 mps 729 mmHg 40%
13:00 +30°C° 0 mm 5 mps 729 mmHg 40%
14:00 +30°C° 0 mm 6 mps 729 mmHg 41%
15:00 +28°C° 0 mm 6 mps 728 mmHg 46%
16:00 +27°C° 0 mm 5 mps 728 mmHg 52%
17:00 +25°C° 0 mm 5 mps 728 mmHg 58%
18:00 +23°C° 0 mm 4 mps 728 mmHg 65%
19:00 +22°C° 0 mm 3 mps 729 mmHg 72%
20:00 +20°C° 0 mm 2 mps 729 mmHg 79%
21:00 +20°C° 0 mm 2 mps 729 mmHg 80%
22:00 +21°C° 0 mm 1 mps 729 mmHg 81%
23:00 +20°C° 0 mm 1 mps 728 mmHg 83%

4 October, Sunday

Time Temperature Precipitation Wind Pressure Humidity
00:00 +20°C° 0 mm 1 mps 728 mmHg 83%
01:00 +20°C° 0 mm 1 mps 728 mmHg 83%
02:00 +18°C° 0 mm 0 mps 728 mmHg 84%
03:00 +17°C° 0 mm 0 mps 728 mmHg 84%
04:00 +17°C° 0 mm 0 mps 728 mmHg 84%
05:00 +17°C° 0 mm 0 mps 728 mmHg 84%
06:00 +19°C° 0 mm 0 mps 729 mmHg 76%
07:00 +23°C° 0 mm 1 mps 729 mmHg 69%
08:00 +25°C° 0 mm 1 mps 730 mmHg 61%
09:00 +26°C° 0 mm 1 mps 730 mmHg 54%
10:00 +28°C° 0 mm 2 mps 730 mmHg 47%
11:00 +29°C° 0 mm 3 mps 730 mmHg 41%
12:00 +29°C° 0 mm 4 mps 729 mmHg 41%
13:00 +29°C° 0 mm 5 mps 729 mmHg 42%
14:00 +29°C° 0 mm 6 mps 729 mmHg 43%
15:00 +28°C° 0 mm 6 mps 729 mmHg 49%
16:00 +27°C° 0 mm 5 mps 729 mmHg 55%
17:00 +26°C° 0 mm 5 mps 728 mmHg 61%
18:00 +23°C° 0 mm 4 mps 728 mmHg 68%
19:00 +22°C° 0 mm 3 mps 729 mmHg 74%
20:00 +21°C° 0 mm 2 mps 729 mmHg 81%
21:00 +20°C° 0 mm 2 mps 729 mmHg 82%
22:00 +21°C° 0 mm 1 mps 729 mmHg 83%
23:00 +21°C° 0 mm 1 mps 728 mmHg 84%

5 October, Monday

Time Temperature Precipitation Wind Pressure Humidity
00:00 +20°C° 0 mm 1 mps 728 mmHg 84%
01:00 +18°C° 0 mm 0 mps 728 mmHg 85%
02:00 +18°C° 0 mm 0 mps 728 mmHg 86%
03:00 +18°C° 0 mm 0 mps 728 mmHg 86%
04:00 +18°C° 0 mm 0 mps 728 mmHg 87%
05:00 +17°C° 0 mm 0 mps 728 mmHg 88%
06:00 +19°C° 0 mm 0 mps 728 mmHg 80%
07:00 +21°C° 0 mm 0 mps 729 mmHg 72%
08:00 +25°C° 0 mm 1 mps 729 mmHg 65%
09:00 +27°C° 0 mm 1 mps 729 mmHg 56%
10:00 +29°C° 0 mm 1 mps 729 mmHg 48%
11:00 +31°C° 0 mm 1 mps 729 mmHg 39%
12:00 +31°C° 0 mm 2 mps 729 mmHg 39%
13:00 +33°C° 0 mm 3 mps 728 mmHg 38%
14:00 +33°C° 0 mm 4 mps 728 mmHg 38%
15:00 +30°C° 0 mm 4 mps 727 mmHg 42%
16:00 +29°C° 0 mm 4 mps 727 mmHg 46%
17:00 +27°C° 0 mm 4 mps 727 mmHg 50%
18:00 +26°C° 0 mm 4 mps 727 mmHg 56%
19:00 +24°C° 0 mm 3 mps 727 mmHg 63%
20:00 +21°C° 0 mm 2 mps 727 mmHg 69%
21:00 +21°C° 0 mm 2 mps 727 mmHg 70%
22:00 +22°C° 0 mm 1 mps 727 mmHg 71%
23:00 +21°C° 0 mm 1 mps 727 mmHg 72%
Show more